SCP
0 0 0 0 0 0 0 0 0 0 0 0 0 0 0 0 0 0 1 1 1 1 1 1 1 1 1 1 1 1 1 1 1 0 0 0 0 0 0 -0 -0 -0 0 0
0 0 0 0 0 0 0 0 0 0 0 0 0 0 0 0 0 0 0 0 0 0 1 1 1 1 1 1 1 1 0 0 0 0 0 0 0 0 0 0 -0 0 0 0
0 -0 -0 0 0 0 0 0 0 0 0 0 0 0 0 0 0 0 0 0 0 0 0 0 0 0 0 0 0 0 0 0 0 0 0 0 0 0 0 0 0 0 0 0
-0 0 -0 -0 0 0 0 0 0 0 0 0 0 0 0 0 0 0 0 0 0 0 0 0 0 0 0 0 0 0 0 0 0 0 0 0 0 0 0 0 0 0 0 0
-0 0 0 0 0 0 0 0 0 0 0 0 0 0 0 0 0 0 0 0 0 0 0 0 0 0 0 0 0 0 0 0 0 0 0 0 0 0 0 0 0 0 0 0
0 0 0 0 0 0 0 0 0 0 0 0 0 0 0 0 0 0 0 0 0 0 0 0 0 0 0 0 0 0 0 0 0 0 0 0 0 0 0 0 0 0 0 0
-0 0 0 0 0 0 0 0 0 0 0 0 0 0 0 0 0 0 0 0 0 0 0 0 0 0 0 0 0 0 0 0 0 0 0 0 0 0 0 0 0 0 0 0
-0 0 0 0 0 0 0 0 0 0 0 0 0 0 0 0 0 0 0 0 0 0 0 0 0 0 0 0 0 0 0 0 0 0 0 0 0 0 0 0 0 0 0 0
-0 0 0 -0 -0 0 0 0 0 0 0 0 0 0 0 0 0 0 0 0 0 0 0 0 0 0 0 0 0 0 0 0 0 0 0 0 0 0 0 0 0 0 0 0
-0 0 -0 -0 -0 -0 0 0 0 -0 -0 0 0 0 0 0 0 0 0 0 0 0 0 0 0 0 0 0 0 0 0 0 0 0 0 0 0 0 0 0 0 0 0 -0
0 0 -0 -0 -0 -0 -0 -0 -0 -0 -0 -0 -0 0 0 0 0 0 0 0 0 0 0 0 0 0 0 0 0 0 0 0 0 0 0 0 0 0 0 0 0 0 0 0
0 0 -0 -0 -0 -0 -0 -0 -0 -0 -0 -0 -0 0 0 0 0 0 0 0 0 0 0 0 0 0 0 0 0 0 0 0 0 0 0 0 0 0 0 0 0 0 0 0
0 0 -0 -0 -0 -0 -0 -0 -0 -0 0 -0 -0 0 0 0 0 0 0 0 0 0 0 0 0 0 0 0 0 0 0 0 0 0 0 0 0 0 0 0 0 0 0 0
-0 0 0 0 0 -0 -0 -0 -0 0 0 -0 -0 -0 0 0 0 0 0 0 0 0 0 0 0 0 0 0 0 0 0 0 0 0 0 0 0 0 0 0 0 0 0 0
-0 0 0 0 0 -0 -0 -0 -0 0 0 -0 -0 -0 0 0 0 0 0 0 0 0 0 0 0 0 0 0 0 0 0 0 0 0 0 0 0 0 0 0 0 0 0 0
0 0 0 0 0 -0 -0 -0 -0 0 -0 -0 -0 -0 0 0 0 0 0 0 0 0 0 0 0 0 0 0 0 0 0 0 0 0 0 0 0 0 0 0 0 0 0 0
0 0 0 0 0 -0 -0 -0 -0 0 -0 -0 -0 -0 0 0 0 0 0 0 0 0 0 0 0 0 0 0 0 0 0 0 0 0 0 0 0 0 0 0 0 0 0 0
0 0 0 -0 -0 -0 -0 -0 0 0 0 0 0 0 0 0 0 0 0 0 0 0 0 0 0 0 0 0 0 0 0 0 0 0 0 0 0 0 0 0 0 0 0 0
-0 -0 -0 -0 -0 -0 -0 -0 0 0 0 0 0 0 0 0 0 0 0 0 0 0 0 0 0 0 0 0 0 0 0 0 0 0 0 0 0 0 0 0 -0 0 0 0
-0 -0 -0 -0 -0 -0 -0 -0 0 0 0 0 0 0 0 0 0 0 0 0 0 0 0 0 0 0 0 0 0 0 0 0 0 0 0 0 0 0 0 0 0 0 0 0
-0 -0 -0 0 0 0 0 0 0 0 0 0 0 0 0 0 0 0 0 0 0 0 0 0 0 0 0 0 0 0 0 0 0 0 0 0 0 0 0 0 0 0 0 0
0 0 0 0 0 0 0 0 0 0 0 0 0 0 0 0 0 0 0 0 0 0 0 0 0 0 0 0 0 0 0 0 0 0 0 0 0 0 0 0 0 0 0 0
0 0 0 0 0 0 0 0 0 0 0 0 0 0 0 0 0 0 0 0 0 0 0 0 0 0 0 0 -0 -0 -0 -0 0 0 0 0 0 0 0 0 0 0 0 0
0 0 0 0 0 0 0 0 0 0 0 0 0 0 0 0 0 0 0 0 0 0 0 0 0 0 0 0 -0 -0 -0 0 0 0 0 0 0 0 0 0 0 0 0 0
0 -0 -0 -0 0 0 0 0 0 0 0 0 0 0 0 0 0 0 0 0 0 0 0 0 0 0 0 0 0 0 0 0 0 0 0 0 0 0 0 0 0 0 0 0
0 -0 -0 -0 0 0 0 0 0 0 0 0 0 0 0 0 0 0 0 0 0 0 0 0 0 0 0 0 0 0 0 0 0 0 0 0 0 0 0 0 0 0 0 0
Wind_Speed
3 3 3 6 7 5 3 2 4 5 3 4 6 6 7 7 9 8 8 8 8 7 7 8 8 7 6 6 6 5 4 4 3 2 2 2 2 3 3 3 4 3 4 3
4 4 8 5 4 4 4 3 3 3 2 4 7 7 6 8 8 7 7 7 7 6 7 8 9 8 7 6 6 5 5 4 3 2 2 2 3 3 4 4 5 5 5 5
5 7 2 2 2 4 4 5 5 3 3 5 6 4 4 5 7 8 8 7 7 7 7 7 8 9 8 8 7 6 5 5 4 4 3 4 4 4 4 5 5 7 7 7
5 5 2 2 3 4 4 5 6 5 4 1 2 3 1 3 5 6 6 6 7 7 7 7 8 8 8 8 7 6 6 6 5 5 5 6 5 4 3 4 5 7 9 8
4 2 1 2 4 4 5 1 4 4 4 3 2 4 2 3 2 3 4 5 6 6 7 7 7 7 7 7 6 6 6 7 6 6 6 7 7 5 5 6 8 8 8 9
5 3 3 3 2 2 2 5 5 5 5 2 1 4 3 2 3 4 4 5 5 6 6 6 7 7 8 7 7 7 7 8 8 8 7 8 9 8 8 8 8 7 6 7
5 4 2 1 1 3 4 5 4 5 4 1 1 3 2 1 3 7 7 6 5 5 6 6 7 8 8 8 8 7 9 9 9 9 9 8 9 9 9 8 7 7 6 6
1 5 3 1 2 2 1 6 6 4 3 2 2 2 1 3 6 7 8 7 6 6 6 7 7 7 7 7 7 7 9 9 9 9 9 8 9 8 7 8 7 7 6 6
4 4 4 2 1 3 3 2 4 6 2 1 1 1 2 4 6 7 7 7 6 6 6 7 6 6 7 7 7 8 9 9 10 9 10 10 10 10 9 9 8 7 7 7
5 2 4 3 4 5 3 6 5 5 4 1 2 2 3 6 5 5 6 6 6 6 5 6 6 6 6 7 7 8 9 9 9 9 9 9 10 10 9 9 9 9 8 8
3 3 4 4 3 1 2 3 5 4 4 5 3 4 1 5 7 7 7 7 7 6 5 5 5 5 6 7 8 9 9 9 9 9 9 10 10 9 9 9 9 8 8 8
3 5 1 2 3 1 2 3 5 4 2 3 3 3 3 2 6 7 8 7 7 7 6 6 6 6 7 7 8 8 8 9 9 9 9 9 9 9 9 9 8 8 8 8
5 5 3 4 5 4 4 2 3 5 4 3 3 2 3 6 7 7 8 8 8 7 7 6 6 6 7 7 7 8 8 8 8 8 9 9 9 9 8 7 7 8 8 8
7 5 5 5 5 2 1 1 2 4 3 3 3 3 3 5 6 7 8 8 8 7 7 7 6 6 6 6 6 7 7 7 7 7 8 8 7 7 7 6 7 7 7 7
5 4 2 1 0 2 2 1 2 2 3 4 3 3 4 5 6 7 8 8 8 7 7 7 7 6 6 6 6 6 6 6 6 7 7 6 6 6 6 7 7 7 7 7
4 4 3 3 3 4 3 3 3 2 2 2 3 2 3 6 7 7 7 8 8 8 8 8 7 7 6 5 5 5 6 5 5 6 6 5 5 6 6 6 6 6 6 6
3 5 4 1 1 2 2 2 1 2 1 2 2 3 6 6 7 7 7 7 8 8 8 8 7 6 6 5 5 5 5 5 5 5 5 5 5 5 5 5 6 5 5 5
7 5 4 3 1 2 4 1 3 4 2 2 4 6 6 6 5 5 5 7 8 8 8 8 6 6 5 5 5 5 5 5 5 5 4 4 4 5 4 5 5 4 3 4
5 7 5 4 2 2 2 1 3 3 0 2 6 8 8 9 7 5 4 5 7 7 7 6 6 6 6 6 5 6 5 4 4 4 3 3 4 4 4 4 3 3 3 3
6 6 6 4 3 4 4 1 3 4 1 3 6 9 9 6 4 2 4 7 8 8 7 7 6 7 6 5 5 6 5 5 4 3 3 3 3 3 3 3 2 2 2 2
3 4 4 3 2 4 2 0 2 1 4 4 7 8 7 4 4 6 8 8 9 9 8 8 7 6 5 5 6 6 5 3 2 2 3 3 3 3 3 3 2 2 3 3
5 4 3 4 2 4 1 2 3 4 3 6 6 7 8 9 10 10 9 9 10 9 8 8 7 6 4 4 5 5 3 2 3 3 3 3 3 3 3 3 3 3 3 3
3 4 5 5 4 2 2 1 2 4 6 5 7 9 11 11 10 10 9 9 8 8 7 6 7 6 4 4 4 4 2 2 3 3 3 3 3 4 3 3 3 3 3 2
2 3 5 3 1 2 3 3 4 5 6 8 9 11 11 11 11 11 9 8 7 7 6 6 6 6 4 3 2 2 2 3 3 3 3 3 3 3 3 3 2 2 2 2
5 4 4 3 2 3 2 3 6 8 11 12 10 9 11 13 11 9 8 8 7 6 5 5 5 5 3 2 2 1 2 3 3 3 3 3 3 3 3 2 2 1 1 2
5 7 7 7 9 7 5 6 7 10 10 11 11 9 8 10 10 9 8 6 6 6 5 5 5 4 2 2 1 1 2 3 3 2 2 2 2 2 2 2 2 2 0 0
Wind_Direction
66 76 234 232 205 204 204 230 271 274 294 70 89 82 50 52 65 68 67 65 62 56 46 43 43 44 46 50 54 44 43 50 69 105 122 130 120 103 83 69 65 74 84 87
29 275 240 224 198 187 196 226 257 298 28 110 105 80 62 63 69 73 73 66 61 55 47 41 40 41 39 40 45 49 47 47 52 69 106 103 100 91 85 67 57 53 62 64
211 246 250 194 208 197 215 199 210 193 66 87 111 77 69 71 78 74 69 68 59 55 49 43 41 40 40 38 38 42 42 52 51 62 83 92 86 79 70 66 55 45 53 58
238 262 254 245 243 190 254 223 184 166 132 175 137 138 149 112 85 72 66 61 57 51 47 44 42 39 38 34 33 34 37 46 49 63 86 98 96 93 75 83 74 57 52 53
256 252 249 253 249 185 225 161 148 153 135 99 61 127 200 151 130 102 81 68 60 56 52 48 45 41 40 34 33 34 44 51 52 62 81 94 91 90 90 84 78 66 55 53
253 262 224 235 275 169 153 74 63 57 79 81 255 141 195 207 178 143 117 88 68 61 56 49 48 46 41 36 37 38 53 53 52 63 69 86 98 101 96 86 82 72 63 57
326 320 298 249 12 19 77 87 39 13 24 246 290 120 192 26 125 145 136 115 86 67 63 53 46 42 37 36 37 40 58 57 53 62 67 76 90 94 93 91 88 84 74 63
323 306 304 325 178 180 125 131 150 183 206 269 355 132 125 75 95 109 120 116 97 77 68 62 51 45 40 40 43 45 57 63 61 65 67 70 79 84 83 83 85 83 79 72
186 262 302 332 4 133 129 130 151 127 116 85 294 127 131 116 115 116 115 107 97 83 74 68 57 47 47 47 48 50 60 66 64 65 71 72 73 78 82 81 79 78 76 76
161 237 305 316 51 39 107 136 94 110 138 186 243 215 208 181 174 151 138 124 109 96 83 75 67 56 53 54 54 55 63 69 70 68 72 78 75 76 79 79 76 75 72 72
120 144 328 19 40 347 63 77 92 99 138 151 207 254 267 188 177 165 152 139 126 115 101 87 78 69 65 64 62 62 63 67 68 70 73 76 76 76 77 76 74 74 71 69
117 112 30 317 307 353 101 126 141 140 177 152 163 256 6 145 143 139 138 132 123 112 102 94 86 80 73 70 69 68 68 69 71 73 75 75 77 77 76 73 71 72 70 66
129 104 71 355 344 6 50 54 107 116 114 143 161 238 60 94 110 122 126 123 119 114 108 97 89 85 80 76 76 76 75 76 75 78 79 77 75 75 75 73 72 73 72 68
109 102 149 184 218 221 67 47 119 117 132 181 206 186 134 119 124 124 126 124 122 122 116 107 96 88 84 81 81 82 80 79 80 79 80 77 74 74 74 72 71 72 74 71
96 106 134 139 180 127 96 65 88 120 167 175 196 172 175 160 148 137 133 132 128 125 120 114 109 101 94 87 83 82 82 79 81 81 78 75 74 74 75 72 70 68 68 68
82 113 91 45 52 80 65 38 60 69 89 110 118 128 112 120 119 126 137 141 139 136 132 126 122 113 106 101 96 89 86 84 85 83 81 80 77 75 75 75 74 70 66 62
94 114 105 136 312 43 345 305 124 99 68 144 175 162 130 124 135 146 150 150 145 141 136 132 129 122 115 111 107 99 94 88 85 83 80 78 79 77 74 77 73 68 63 62
120 102 108 115 89 257 263 314 129 113 68 76 105 118 127 123 113 108 130 144 140 136 134 131 127 119 110 106 104 103 99 94 91 86 80 76 76 74 72 72 67 60 58 60
119 124 110 112 135 288 284 187 145 130 89 119 128 124 117 116 95 73 93 123 129 130 127 124 121 115 110 109 110 106 95 91 92 91 85 82 88 86 79 75 68 63 66 62
63 87 105 116 144 237 252 262 145 104 271 164 144 141 142 135 126 145 123 116 113 112 112 111 108 103 104 108 111 106 98 94 95 93 84 80 88 91 89 85 80 72 84 78
59 56 94 131 187 260 270 202 126 163 244 153 145 144 141 131 130 128 120 112 112 110 109 109 107 105 110 116 113 109 105 105 99 83 80 74 77 89 96 83 73 82 82 76
151 137 147 133 172 260 328 121 166 199 117 118 124 125 117 111 111 114 115 115 115 111 110 111 111 107 104 112 114 110 105 100 88 84 76 70 68 76 87 84 73 72 82 77
151 173 165 166 196 251 341 114 100 123 119 121 123 123 124 120 119 117 115 115 113 114 113 111 114 109 97 97 112 119 114 92 88 83 77 70 66 64 70 85 87 74 72 75
147 120 107 108 83 57 67 76 77 94 110 116 123 128 125 123 124 121 120 118 115 113 114 114 115 113 106 101 112 129 117 104 100 91 80 75 76 66 60 66 83 93 93 89
168 130 109 117 142 106 67 101 109 98 104 108 108 114 125 125 125 124 125 124 122 117 113 116 121 126 129 115 99 98 108 113 106 97 84 79 79 83 72 64 66 99 150 185
181 163 162 193 186 161 165 145 126 120 121 124 118 110 114 124 126 124 124 124 123 119 116 117 122 128 130 116 92 67 104 120 117 103 90 91 97 91 88 80 45 34 106 221